Fort Knox, KY

10:27 AM EDT on May 20, 2018 (GMT -0400)
Godman Army Air Field

Weather History for KFTK - March, 2014

Change the Weather History Date:

Sunday, March 30, 2014

  Actual Average Record
Temperature  
Mean Temperature 44 °F -  
Max Temperature 57 °F 61 °F 82 °F (1998)
Min Temperature 32 °F 40 °F 28 °F (2013)
Degree Days  
Heating Degree Days 21    
Moisture  
Dew Point 30 °F    
Average Humidity 62    
Maximum Humidity 87    
Minimum Humidity 34    
Precipitation  
Precipitation 0.00 in - - ()
Sea Level Pressure  
Sea Level Pressure 30.20 in    
Wind  
Wind Speed 6 mph (NW)    
Max Wind Speed 10 mph    
Max Gust Speed -    
Visibility 10 miles    
Events      
Averages and records for this station are not official NWS values.
T = Trace of Precipitation, MM = Missing Value Source: NWS Daily Summary

Daily Weather History Graph

Daily Weather History Graph

Search for Another Location

Airport or City:

Astronomy

Mar. 30, 2014 Rise Set
Actual Time 7:32 AM EDT 8:05 PM EDT
Civil Twilight 7:05 AM EDT 8:31 PM EDT
Nautical Twilight 6:34 AM EDT 9:02 PM EDT
Astronomical Twilight 6:02 AM EDT 9:34 PM EDT
Moon 7:17 AM EDT (3/30) 8:16 PM EDT (3/30)
Length of Visible Light 13h 25m
Length of Day
12h 32m
Waning Crescent, 0% of the Moon is Illuminated
Mar 30
Waning Crescent
Mar 30
New
Apr 7
First Quarter
Apr 15
Full
Apr 22
Last Quarter

Hourly Weather History & Observations

Time (EDT) Temp. Windchill Dew Point Humidity Pressure Visibility Wind Dir Wind Speed Gust Speed Precip Events Conditions
12:58 AM 39.4 °F 32.7 °F 33.4 °F 79% 30.19 in 10.0 mi NW 10.4 mph - N/A   Overcast
1:58 AM 39.0 °F 34.8 °F 33.4 °F 80% 30.19 in 10.0 mi NW 5.8 mph - N/A   Overcast
2:58 AM 38.8 °F 34.6 °F 33.3 °F 80% 30.18 in 10.0 mi WNW 5.8 mph - N/A   Overcast
3:58 AM 38.3 °F 31.4 °F 32.2 °F 79% 30.18 in 10.0 mi NW 10.4 mph - N/A   Overcast
4:58 AM 37.4 °F 31.4 °F 30.9 °F 77% 30.19 in 10.0 mi NW 8.1 mph - N/A   Overcast
5:53 AM 35.6 °F 29.2 °F 30.2 °F 81% 30.19 in 10.0 mi NW 8.1 mph - N/A   Scattered Clouds
5:58 AM 35.2 °F 28.8 °F 29.7 °F 80% 30.22 in 10.0 mi NW 8.1 mph - N/A   Scattered Clouds
6:58 AM 32.7 °F 27.3 °F 28.6 °F 85% 30.23 in 10.0 mi WNW 5.8 mph - N/A   Clear
7:58 AM 32.2 °F 27.7 °F 28.8 °F 87% 30.25 in 10.0 mi NW 4.6 mph - N/A   Clear
8:58 AM 34.7 °F 29.6 °F 29.5 °F 81% 30.26 in 10.0 mi NNW 5.8 mph - N/A   Clear
9:58 AM 38.7 °F 31.8 °F 28.2 °F 66% 30.25 in 10.0 mi North 10.4 mph - N/A   Clear
10:58 AM 41.0 °F 36.4 °F 29.5 °F 64% 30.26 in 10.0 mi NW 6.9 mph - N/A   Clear
11:58 AM 44.6 °F 42.2 °F 30.0 °F 57% 30.26 in 10.0 mi NW 4.6 mph - N/A   Clear
12:58 PM 48.0 °F - 32.2 °F 54% 30.26 in 10.0 mi WNW 5.8 mph - N/A   Clear
1:58 PM 50.9 °F - 32.0 °F 48% 30.23 in 10.0 mi Variable 4.6 mph - N/A   Clear
2:58 PM 52.5 °F - 27.7 °F 38% 30.20 in 10.0 mi East 3.5 mph - 0.00 in   Clear
3:58 PM 53.8 °F - 27.3 °F 36% 30.17 in 10.0 mi East 4.6 mph - N/A   Clear
4:58 PM 55.8 °F - 27.5 °F 34% 30.15 in 10.0 mi Variable 2.3 mph - N/A   Clear
5:58 PM 56.7 °F - 28.4 °F 34% 30.16 in 10.0 mi Variable 3.5 mph - N/A   Clear
6:58 PM 56.1 °F - 29.5 °F 36% 30.16 in 10.0 mi WNW 6.9 mph - N/A   Clear
7:58 PM 54.1 °F - 27.3 °F 36% 30.15 in 10.0 mi Calm Calm - N/A   Clear
8:58 PM 48.4 °F - 29.3 °F 48% 30.16 in 10.0 mi Calm Calm - N/A   Clear
9:58 PM 44.1 °F - 32.2 °F 63% 30.17 in 10.0 mi West 2.3 mph - N/A   Clear
10:58 PM 44.4 °F - 32.2 °F 62% 30.17 in 10.0 mi Calm Calm - N/A   Clear
11:58 PM 40.3 °F - 31.6 °F 71% 30.17 in 10.0 mi Calm Calm - N/A   Clear